COSMOS 1800

Satellite information

Favourite Embed

Satellite Type and Status

PAYLOADIN ORBIT

Key statistics

Satellite COSMOS 1800 at a glance.

Uptime

14109

Days in orbit

Revolutions

≈ 12.6

Per day

Orbit

LEO

Low Earth Orbit

Inclination

74.0

Latest

Satellite identification and parameters

Extended collection of information and parameters for COSMOS 1800.

Object identification

Identified? True

Debris? False

Object name: COSMOS 1800

International designator: 1986-092G

Object number (NORAD): 17144

Object ID (CCSDS): 17144

Country: COMMONWEALTH OF INDEPENDENT STATES (CIS)

Current information (Y/N): Y

RCS size: MEDIUM

Orbital parameters

Period: 114.555 minutes

Inclination: 74.0119 deg

SMA: 7813.325 km

Apoapsis: 1472.806 km

Periapsis: 1397.574 km

RAAN: 166.5487 deg

Eccentricy: 0.0048144

Argument of periapsis: 252.386 deg

Mean anomaly: 121.4894 deg

Mean motion: 12.57039508 rev/day

Mean motion (dot): -0.00000014 rev/day2

B* drag term: 0.000016965 1/REarth

Two-line elements (TLE)

Creation date: July 7, 2025, 10:26 p.m.

Reference frame: TEME

Reference center: EARTH

Epoch: July 7, 2025, 9:19 p.m. UTC

TLE line 0: 0 COSMOS 1800

TLE line 1: 1 17144U 86092G 25188.88824847 -.00000014 00000-0 16965-4 0 9992

TLE line 2: 2 17144 74.0119 166.5487 0048144 252.3860 121.4894 12.57039508772785

Live tracking on map

Real-time ground track for satellite COSMOS 1800.

In-orbit conjunctions

A list of the most updated potential collisions computed for object COSMOS 1800.

Target Orbit TCA Probability of collision Miss distance Type
ARIANE 42P DEB LEO 2025-02-06 19:20:45 0.0005938089 362.0 (m) DEBRIS

Associated space launch

Military communications satellites

COSMOS 1800 was lifted into orbit during the mission ‘Kosmos-3M | Strela-1M 313-320’, on board a Kosmos-3M space rocket.

The launch took place on Nov. 21, 1986, 2 a.m. from 132/2.

For more information about the launch, click the button.

Launch to space Kosmos-3M | Strela-1M 313-320
Kosmos-3M | Strela-1M 313-320

Agency: N/A

Status: Launch Successful

Launch date: Nov. 21, 1986, 2 a.m. UTC

Rocket: Kosmos-3M

Launch pad: 132/2

Location: Plesetsk Cosmodrome, Russian Federation

...

Latest news about this satellite

There are no fresh news available about this satellite. Check back as we update our databases every day.


Newsletter sign-up

Weekly statistics, charts and insights to help you stay on top of the space industry.